Location: Cranbrook Institute of Science
(42.5830°N, 83.2450°W)
Time: 14:49:30
(UTC-04:00)

Daily predictions for brighter satellites

Satellite Brightness Start Highest point End
(mag) Time Altitude Azimuth Time Altitude Azimuth Time Altitude Azimuth
YAOGAN 11 4.3 21:19:29 10° SSE 21:23:57 64° ENE 21:28:31 10° N
Cosmos 2184 Rocket 4.2 21:18:55 10° S 21:25:05 80° W 21:31:19 10° N
Cosmos 2082 Rocket 3.4 21:20:40 10° N 21:25:33 28° NE 21:30:22 10° ESE
CENTAUR R/B 4.5 21:21:39 10° NW 21:28:42 36° WSW 21:36:02 10° S
SPOT 5 4.1 21:24:30 10° SE 21:29:09 32° ENE 21:33:51 10° N
Cosmos 1452 Rocket 3.5 21:28:43 10° SSW 21:33:58 78° ESE 21:39:16 10° NNE
Lacrosse 5 3.7 21:37:01 10° ESE 21:37:36 10° ESE 21:38:11 10° ESE
Cosmos 1184 Rocket 3.3 21:35:33 10° SSE 21:38:43 40° E 21:41:53 10° NNE
Cosmos 1674 Rocket 4.2 21:35:09 10° NNW 21:39:33 61° W 21:43:53 10° S
Intercosmos 25 4.4 21:38:20 10° SE 21:40:53 20° E 21:43:17 10° NE
H-2A R/B 4.1 21:41:50 10° E 21:43:56 12° ENE 21:46:01 10° NE
Cosmos 2297 4.2 21:40:07 10° S 21:45:21 39° ESE 21:50:39 10° NE
Okean 2 Rocket 3.3 21:49:08 10° SSE 21:53:23 50° E 21:57:39 10° NNE
Cosmos 1606 3.2 21:50:00 10° NNW 21:53:54 64° W 21:57:46 10° S
BREEZE-M DEB (TANK) 3.4 21:53:39 10° WNW 21:55:27 24° NNW 21:57:28 10° NE
Cosmos 2084 4.4 21:52:45 10° WSW 21:56:27 45° NW 22:00:10 10° NNE
Cosmos 1782 Rocket 3.6 21:53:47 10° S 21:58:13 70° E 22:02:41 10° NNE
EO 1 Delta rocket 4.1 21:52:20 10° NNE 21:58:13 69° E 22:03:03 10° S
SPOT 1/Viking Rocket 4.5 21:55:17 13° SE 21:59:12 33° ENE 22:03:49 10° N
CZ-4 DEB 4.3 21:57:27 10° SSW 22:00:22 34° W 22:03:18 10° NNW
USA 229 DEB 4.1 21:54:06 10° NNW 22:01:06 57° NE 22:07:00 15° SE
USA 229 4.1 21:54:12 10° NNW 22:01:12 56° NE 22:07:06 15° ESE
Cosmos 1242 Rocket 2.7 21:58:08 10° N 22:01:48 60° E 22:04:46 15° SSE
Cosmos 1850 Rocket 4.1 21:59:35 10° NNW 22:04:56 71° ENE 22:09:25 15° SSE
COS B Rocket 3.2 22:02:48 10° N 22:06:44 78° W 22:10:11 10° S
Cosmos 1862 4.0 22:04:02 10° SSW 22:08:02 59° W 22:12:05 10° N
Elektron 3 4.0 22:05:38 10° NW 22:08:31 88° SW 22:11:16 19° SE
Nadezhda 3 Rocket 4.4 22:03:46 10° NNW 22:10:06 70° W 22:16:25 10° S
Cosmos 1975 Rocket 3.0 22:07:39 10° N 22:12:01 86° W 22:16:09 11° S
GPS 2-05 Rocket1 4.2 22:09:20 10° WSW 22:12:29 26° S 22:13:49 21° SSE
ARGOS 3.8 22:09:05 17° SE 22:12:43 39° ENE 22:17:39 10° N
YAOGAN 6 3.0 22:10:46 21° SE 22:12:46 45° ENE 22:16:10 10° N
DNEPR-1 R/B 4.0 22:07:29 10° NW 22:12:50 70° WSW 22:16:17 17° SSE
OAO 3 Rocket 4.1 22:08:44 10° SW 22:13:04 30° S 22:15:30 20° SE
Lacrosse 5 rocket 2.3 22:10:32 10° S 22:13:40 22° SE 22:16:42 10° ENE
Cosmos 2218 Rocket 4.3 22:08:27 10° SSE 22:14:35 50° E 22:20:43 10° NNE
BREEZE-M DEB (TANK) 4.2 22:12:24 10° W 22:15:07 42° N 22:21:43 10° ENE
Cosmos 1408 3.4 22:12:05 10° SSW 22:15:39 51° W 22:19:12 10° N
PSLV R/B 3.1 22:16:18 27° SE 22:17:42 59° ENE 22:20:37 10° N
Gbstr 26 Del rocket 4.1 22:18:57 10° NW 22:24:10 45° NNE 22:27:30 16° E
AVUM R/B 3.9 22:21:22 10° NNW 22:24:45 45° ENE 22:26:05 29° ESE
Cosmos 1536 Rocket 4.2 22:20:40 10° N 22:24:56 41° ENE 22:27:02 25° SE
CZ-4 SHROUD 3.1 22:23:31 29° SSE 22:24:56 73° ENE 22:28:02 10° N
Cosmos 1727 Rocket 4.3 22:20:41 10° N 22:26:39 48° ENE 22:30:27 22° SE
Cosmos 1741 Rocket 4.1 22:21:55 10° NNW 22:27:09 77° WSW 22:31:03 18° SSE
MetOp-A 4.2 22:31:17 17° S 22:35:29 81° WSW 22:40:53 10° NNW
Cosmos 1110 Rocket 4.2 22:35:43 20° S 22:39:07 48° ESE 22:44:06 10° NNE
Cosmos 1825 4.3 22:36:09 10° SW 22:39:25 27° WNW 22:42:43 10° NNW
Cosmos 614 Rocket 4.2 22:34:42 10° NNW 22:39:44 64° WSW 22:43:08 20° S
Envisat 4.0 22:35:31 10° S 22:40:19 43° W 22:45:10 10° NNW
Cosmos 1833 Rocket 2.6 22:36:18 10° NNW 22:41:58 83° ENE 22:45:06 28° SSE
Meteor 1-20 Rocket 4.5 22:39:25 25° SSE 22:42:21 47° E 22:47:37 10° NNE
SL-8 Rocket 4.1 22:39:24 10° S 22:45:41 80° W 22:51:57 10° N
Terra 2.8 22:44:32 25° ESE 22:46:08 32° ENE 22:50:20 10° N
USA 245 3.2 22:46:36 36° S 22:48:02 85° WSW 22:52:31 10° NNW
ISS -0.8 22:47:24 10° WNW 22:50:04 23° NNW 22:52:46 10° NE
H-2A R/B 3.7 22:46:56 10° SSW 22:50:40 29° W 22:54:22 10° NW
Cosmos 2278 Rocket 3.9 22:45:39 10° WSW 22:50:46 34° NW 22:55:56 10° N
Timation 1 Rocket 4.2 22:51:38 10° SSW 22:57:36 76° ESE 23:03:38 10° NNE
Abrixas 2.5 22:54:51 10° WSW 22:57:54 79° NNW 22:58:22 59° NE
USA 234 4.2 22:53:45 10° ENE 22:58:06 25° ESE 22:58:06 25° ESE
Cosmos 2151 Rocket 3.8 22:56:55 19° SSW 23:00:08 70° W 23:04:40 10° N
Meteor 1-25 Rocket 4.2 22:58:34 21° S 23:02:39 84° E 23:08:29 10° NNE
CZ-4B R/B 3.4 23:00:06 10° NNE 23:05:01 80° WNW 23:08:19 20° SSW
Cosmos 1300 Rocket 3.7 23:04:46 47° SE 23:05:36 55° E 23:09:57 10° NNE
SPOT 5 4.4 23:02:47 13° SSW 23:07:04 36° W 23:12:00 10° NNW
Cosmos 1486 Rocket 4.2 23:02:22 10° NNW 23:07:38 57° ENE 23:09:20 40° ESE
Cosmos 2082 Rocket 2.9 23:04:25 10° NW 23:09:51 47° WSW 23:12:49 25° SSW
Okean 1 3.3 23:05:58 10° N 23:10:03 71° E 23:10:39 60° SE
Okean 1 Rocket 3.1 23:13:53 53° SE 23:14:29 59° E 23:18:53 10° NNE
Cosmos 1812 2.6 23:10:46 10° N 23:14:39 83° W 23:15:11 64° S
Lacrosse 5 1.7 23:14:38 10° SW 23:19:41 68° SE 23:24:46 10° NE
Genesis I 3.4 23:21:07 58° ENE 23:21:07 58° ENE 23:24:36 10° NE
H-2A R/B 2.0 23:20:50 45° SSE 23:22:33 84° ENE 23:27:51 10° NNW
Meteor 2-4 Rocket 4.5 23:20:17 10° N 23:25:18 35° ENE 23:26:19 33° E
Cosmos 1302 Rocket 3.9 23:32:20 50° S 23:33:41 77° ESE 23:38:59 10° NNE
Okean 1-7 Rocket 3.4 23:29:58 10° N 23:34:29 88° W 23:34:56 72° S
SL-8 R/B 4.4 23:32:58 10° WNW 23:37:40 50° NNE 23:39:35 32° ENE
Meteor 1-13 Rocket 4.3 23:36:13 10° N 23:42:13 88° W 23:43:51 51° S
Cosmos 1633 4.0 23:44:52 30° NE 23:44:52 30° NE 23:47:03 10° NNE
ASTEX 1 3.3 23:38:45 10° N 23:43:45 83° E 23:44:25 67° S
Iridium 4 Rocket 3.9 23:42:33 10° N 23:48:27 62° E 23:49:23 55° SE
Cosmos 1315 Rocket 4.2 23:51:14 29° NE 23:51:14 29° NE 23:53:31 10° NNE
CARTOSAT-1 3.9 23:49:49 54° WSW 23:50:05 55° W 23:54:21 10° NNW
Lacrosse 5 rocket 2.2 23:48:58 10° WSW 23:52:42 43° NW 23:56:18 10° NE
